Regional Weather Roundup
Issued by NWS Portland, ME

Home | Current Version | Previous Version | Text Only | Print | Product List | Glossary On
Versions: 1 2 3 4 5 6 7 8 9 10 11 12 13 14 15 16 17 18 19 20 21 22 23 24 25 26 27 28 29 30 31 32 33 34 35 36 37 38 39 40 41 42 43 44 45 46 47 48 49 50
355
ASUS41 KGYX 010010
RWRGYX
WEATHER ROUNDUP FOR MAINE AND NEW HAMPSHIRE
NATIONAL WEATHER SERVICE GRAY ME
800 PM EDT FRI SEP 30 2016

MEZ002-005-006-010-012-015-018-020-021-024-026-027-029-010100-
MAINE

CITY           SKY/WX    TMP DP  RH WIND       PRES   REMARKS
PORTLAND       CLOUDY    54  42  64 NE8       30.45S
6HR MIN TEMP:  54; 6HR MAX TEMP:  60;

SANFORD        CLOUDY    52  44  74 NE6       30.44S
BAR HARBOR     CLOUDY    47  43  86 CALM      30.47S
WISCASSET      PTCLDY    51  43  74 CALM      30.46F
6HR MIN TEMP:  50; 6HR MAX TEMP:  64;

ROCKLAND       CLOUDY    47  45  93 CALM      30.46S
FRYEBURG       PTCLDY    49  45  86 CALM      30.45S
6HR MIN TEMP:  49; 6HR MAX TEMP:  63;

LEWISTONAUBURN MOCLDY    52  47  83 CALM      30.46S
AUGUSTA        MOCLDY    54  38  54 CALM      30.46S
6HR MIN TEMP:  54; 6HR MAX TEMP:  64;

WATERVILLE     MOCLDY    50  43  77 CALM      30.44R
BANGOR         MOCLDY    54  43  66 S5        30.47R
6HR MIN TEMP:  54; 6HR MAX TEMP:  66;

GREENVILLE       N/A     51  42  71 CALM      30.44F
6HR MIN TEMP:  51; 6HR MAX TEMP:  62;

MILLINOCKET    PTCLDY    49  44  83 CALM      30.47S
6HR MIN TEMP:  49; 6HR MAX TEMP:  65;

HOULTON        CLOUDY    42  41  96 CALM      30.45S
6HR MIN TEMP:  42; 6HR MAX TEMP:  65;

PRESQUE ISLE   CLOUDY    45  43  93 CALM      30.47S
6HR MIN TEMP:  45; 6HR MAX TEMP:  65;

FRENCHVILLE    CLEAR     55  40  56 CALM      30.45S
6HR MIN TEMP:  54; 6HR MAX TEMP:  64;

CARIBOU        CLOUDY    51  43  74 CALM      30.45S
6HR MIN TEMP:  51; 6HR MAX TEMP:  66;

$$

NHZ002-005-008-009-011-012-014-010100-
NEW HAMPSHIRE

CITY           SKY/WX    TMP DP  RH WIND       PRES   REMARKS
PORTSMOUTH     CLOUDY    55  46  72 NE6       30.42R
ROCHESTER      MOCLDY    52  44  74 N5        30.43S
6HR MIN TEMP:  52; 6HR MAX TEMP:  58;

NASHUA         CLOUDY    54  48  80 VRB3      30.42S
MANCHESTER     CLOUDY    54  45  71 NE7       30.41S
6HR MIN TEMP:  54; 6HR MAX TEMP:  60;

CONCORD        MOCLDY    54  37  52 NE5       30.43S
6HR MIN TEMP:  54; 6HR MAX TEMP:  62;

LACONIA        CLOUDY    54  41  61 E10       30.43S
PLYMOUTH       FAIR      48  44  83 CALM      30.42F
BERLIN         CLOUDY    52  42  69 CALM      30.45R
6HR MIN TEMP:  49; 6HR MAX TEMP:  64;

WHITEFIELD     CLOUDY    48  41  76 CALM      30.43S
6HR MIN TEMP:  48; 6HR MAX TEMP:  63;

JAFFREY        CLOUDY    52  40  63 VRB6      30.41S
6HR MIN TEMP:  52; 6HR MAX TEMP:  57; 6HR PCP: TRACE;

KEENE          LGT RAIN  53  45  74 CALM      30.41S
LEBANON        PTCLDY    50  46  86 CALM      30.41S
6HR MIN TEMP:  50; 6HR MAX TEMP:  63;

MT WASHINGTON  MOCLDY    45   3  18 SE21        N/A
6HR MIN TEMP:  44; 6HR MAX TEMP:  52;

$$

VTZ005-007-008-010100-
VERMONT

CITY           SKY/WX    TMP DP  RH WIND       PRES   REMARKS
ST JOHNSBURY     N/A     52  47  83 MISG      30.41S
MONTPELIER     CLOUDY    51  41  68 S6        30.45F
BURLINGTON     CLOUDY    60  44  55 E5        30.39F
$$

MAZ007-012-024-CTZ003-RIZ002-NYZ038-NYZ072-010100-
SOUTHERN NEW ENGLAND AND NY

CITY           SKY/WX    TMP DP  RH WIND       PRES   REMARKS
BOSTON         LGT RAIN  57  55  93 NE16      30.39S
WORCESTER      LGT RAIN  49  47  93 NE13G21   30.37S FOG
NANTUCKET      CLOUDY    60  57  89 NE22G33   30.29F FOG
PROVIDENCE     RAIN      57  55  93 NE13      30.35S FOG
HARTFORD       LGT RAIN  53  50  89 N15       30.36S FOG
ALBANY         LGT RAIN  54  49  83 CALM      30.37R
NEW YORK CITY  LGT RAIN  62  58  86 NE22G29   30.25S FOG
$$

ANZ081-ANZ082-ANZ150-NHZ014-MEZ023>029-010100-
COASTAL MARINE OBSERVATIONS

STATION/POSITION TIME  TEMP    WIND        PRES    WAVE
                       AIR SEA DIR/SP/G            HT/PER
                 (UTC) (F)     (DEG/KT/KT) (MB)    (FT/S)
MOUNT DESERT ROC 0000   55      70/  4/  5 1031.4S
MATINICUS ROCK   0000   54      60/ 11/ 12 1030.6F
ISLE OF SHOALS   0000   56      60/ 20/ 21 1029.4R
JEFFREYS LEDGE   2338      61                N/A     6/ 8
CASHES LEDGE BUO 2350   56 58   70/ 16/ 17 1030.1F   5/10
GEORGES BANK BUO 2250   68 69              1025.7    7/ 6
$$

.............KEY..............
   WCI - WIND CHILL
   TC  - TEMPERATURE IN CELSIUS
   VSB - VISIBILITY IN MILES
   HX  - HEAT INDEX
   FAIR- INDICATES FEW OR NO CLOUDS BELOW 12,000 FT, WITH NO
         SIGNIFICANT WEATHER AND/OR OBSTRUCTIONS TO VISIBILITY.






USA.gov is the U.S. government's official web portal to all federal, state and local government web resources and services.